Regional Weather Roundup
Issued by NWS

Home | Current Version | Previous Version | Text Only | Print | Product List | Glossary Off
Versions: 1 2 3 4 5 6 7 8 9 10 11 12 13 14 15 16 17 18 19 20 21 22 23 24 25 26 27 28 29 30 31 32 33 34 35 36 37 38 39 40 41 42 43 44 45 46 47 48

000
ASUS45 KBOU 211610
RWRCO

WEATHER ROUNDUP FOR COLORADO
NATIONAL WEATHER SERVICE PUEBLO CO
1000 AM MDT SAT APR 21 2018

NOTE: "FAIR" INDICATES FEW OR NO CLOUDS BELOW 12000 FEET WITH NO
SIGNIFICANT WEATHER AND/OR OBSTRUCTIONS TO VISIBILITY.

COZ001>005-013-030-031-211700-
...NORTHWEST COLORADO...

CITY           SKY/WX    TMP DP  RH WIND       PRES   REMARKS
CRAIG          CLOUDY    41  32  70 NE3       30.18R
HAYDEN         CLOUDY    38  33  82 CALM      30.20R
MEEKER         CLOUDY    40  32  73 CALM      30.20R
RABBIT EARS PA NOT AVBL
STEAMBOAT SPGS CLOUDY    33  32  96 CALM      30.18S
WALDEN         CLOUDY    30  28  93 NW9       30.18S WCI  22
$$

COZ006>008-011-211700-
...WEST CENTRAL VALLEYS...

CITY           SKY/WX    TMP DP  RH WIND       PRES   REMARKS
GRAND JUNCTION CLOUDY    50  36  58 CALM      30.19R
MONTROSE       PTSUNNY   42  36  79 SE3       30.22R
EAGLE          CLOUDY    39  36  89 CALM      30.21R
RIFLE          CLOUDY    41  37  86 CALM      30.20R
DELTA          NOT AVBL
NUCLA          FAIR      43  37  81 CALM      30.24R
$$

COZ017>023-064>068-211700-
...SOUTHWEST COLORADO...

CITY           SKY/WX    TMP DP  RH WIND       PRES   REMARKS
DURANGO        SUNNY     45  29  53 NE3       30.12R
CORTEZ         CLOUDY    49  31  49 N14G23    30.16R
PAGOSA SPRINGS FAIR      40  23  49 SW5       30.14R
TELLURIDE      CLOUDY    32  29  88 W8        30.21R WCI  25
WOLF CREEK PAS PTSUNNY   27  19  74 N5        30.22R WCI  21
$$

COZ009-010-012-014-032>034-037-058>063-211700-
...CENTRAL COLORADO...

CITY           SKY/WX    TMP DP  RH WIND       PRES   REMARKS
ASPEN          CLOUDY    32  30  92 CALM      30.16S
BUENA VISTA    PTSUNNY   35  30  82 SE7       30.16S WCI  29
COPPER MTN     NOT AVBL
BERTHOUD PASS  CLOUDY    18   7  62 N12G20    30.15R WCI   5
COTTONWOOD PAS CLOUDY    36  30  80 CALM      30.16S
GUNNISON       CLOUDY    35  30  82 CALM      30.17R
KREMMLING      CLOUDY    37  32  81 CALM      30.19R
LEADVILLE      CLOUDY    28  23  81 N8        30.13S WCI  20
MONARCH PASS     N/A     21  19  93 W8        30.28R WCI  12
SALIDA         CLOUDY    37  32  83 CALM      30.23F
SUNLIGHT       FOG      N/A N/A N/A MISG      30.23F VSB 1/4
WILKERSON PASS LGT SNOW N/A N/A N/A CALM      30.17S VSB 1
$$

COZ069>075-211700-
...SAN LUIS VALLEY/SANGRE DE CRISTO MOUNTAINS...

CITY           SKY/WX    TMP DP  RH WIND       PRES   REMARKS
ALAMOSA        CLOUDY    40  27  59 NE8       30.14R
DEL NORTE      CLOUDY    38  25  58 E5        30.15R
LA VETA PASS   LGT SNOW  28  23  80 N7        30.26R WCI  21
SAGUACHE       NOT AVBL
$$

COZ035-036-038>040-211700-
...NORTHERN COLORADO FRONT RANGE...

CITY           SKY/WX    TMP DP  RH WIND       PRES   REMARKS
DENVER INTL AP LGT SNOW  33  31  92 NW12      30.17R VSB 3/4 WCI  24
DMNS CITY PARK NOT AVBL
AURORA         LGT SNOW  33  33 100 NW8       30.18R FOG     WCI  25
FRONT RANGE AP SNOW      36  34  93 NW8       30.18R VSB 1/2
ERIE MUNI ARPT LGT SNOW  34  33  99 N6        30.25R WCI  29
BOULDER MUN AP LGT RAIN  34  34 100 N5        30.18S WCI  30
CENTENNIAL     LGT SNOW  33  32  96 NW6       30.16S FOG     WCI  28
BROOMFIELD     LGT SNOW  34  34 100 N9        30.18R VSB 3/4 WCI  26
LOVELAND       LGT RAIN  35  34  96 NE6       30.21R WCI  30
LONGMONT       FLURRIES  37  35  92 NE5       30.21S
$$

COZ041-046-047-076>085-087-088-211700-
...PIKES PEAK/PALMER DIVIDE AND SOUTHERN FOOTHILLS...

CITY           SKY/WX    TMP DP  RH WIND       PRES   REMARKS
COLO. SPRINGS  LGT SNOW  34  30  85 NW10      30.14F FOG     WCI  26
A. F. ACADEMY  LGT RAIN  33  31  90 N8        30.12F WCI  26
SCHRIEVER AFB  NOT AVBL
CHEYENNE MTN   NOT AVBL
ELLICOTT         N/A    N/A N/A N/A N10       30.13F
FALCON         CLOUDY    35  29  80 NW6       30.14F WCI  30
FORT CARSON    PTSUNNY   39  32  75 W6        30.14F
LIMON          CLOUDY    34  33  96 CALM      30.16R
MONUMENT HILL  LGT SNOW  30  28  93 W10       30.15F WCI  21
CANON CITY     CLOUDY    39  37  93 S7        30.16S
WALSENBURG     PTSUNNY   45  36  70 N14G20    30.15S
TRINIDAD       CLOUDY    41  36  82 N13       30.14R
$$

COZ042>045-048>051-090-091-211700-
...NORTHEAST COLORADO...

CITY           SKY/WX    TMP DP  RH WIND       PRES   REMARKS
GREELEY ARPT   LGT SNOW  35  34  96 N7        30.21R FOG     WCI  29
AKRON          LGT SNOW  32  32 100 E7        30.18S FOG     WCI  26
BURLINGTON     CLOUDY    37  37 100 E10       30.17S
WRAY           LGT RAIN  37  37 100 E6        30.21S
YUMA           NOT AVBL
STERLING       NOT AVBL
HOLYOKE        CLOUDY    41  37  87 SE8       30.21S
FORT MORGAN    LGT SNOW  33  32  96 E8        30.20S WCI  26
$$

COZ086-089-092>099-211700-
...SOUTHEAST COLORADO...

CITY           SKY/WX    TMP DP  RH WIND       PRES   REMARKS
PUEBLO         CLOUDY    44  36  73 N14       30.15S
LA JUNTA       CLOUDY    44  40  85 VRB7      30.14S
LAMAR          CLOUDY    41  39  93 NE10      30.14S FOG
SPRINGFIELD      N/A     41  40  96 NE10      30.11R
$$





USA.gov is the U.S. government's official web portal to all federal, state and local government web resources and services.